Change the Weather History Date:

Friday, November 2, 2012

  Actual Average (KSSC) Record (KSSC)
Temperature  
Mean Temperature 54 °F -  
Max Temperature 73 °F 69 °F 84 °F (2003)
Min Temperature 35 °F 46 °F 36 °F (2014)
Degree Days  
Heating Degree Days 11    
Growing Degree Days 4 (Base 50)    
Moisture  
Dew Point 35 °F    
Average Humidity 53    
Maximum Humidity 87    
Minimum Humidity 27    
Precipitation  
Precipitation 0.00 in - - ()
Sea Level Pressure  
Sea Level Pressure 29.92 in    
Wind  
Wind Speed 5 mph (WSW)    
Max Wind Speed 17 mph    
Max Gust Speed 22 mph    
Visibility 10 miles    
Events      
Averages and records for this station are not official NWS values.
T = Trace of Precipitation, MM = Missing Value Source: NWS Daily Summary

Daily Weather History Graph

Daily Weather History Graph

Search for Another Location

Airport or City:

Trip Planner

Search our weather history database for the weather conditions in past years. The results will help you decide how hot, cold, wet, or windy it might be!

Date:

Astronomy

Nov. 02, 2012 Rise Set
Actual Time 7:43 AM EDT 6:27 PM EDT
Civil Twilight 7:17 AM EDT 6:53 PM EDT
Nautical Twilight 6:47 AM EDT 7:23 PM EDT
Astronomical Twilight 6:18 AM EDT 7:52 PM EDT
Moon 9:18 PM EDT (11/2) 10:57 AM EDT (11/2)
Length of Visible Light 11h 36m
Length of Day
10h 44m
Waning Gibbous, 87% of the Moon is Illuminated
Nov 2
Waning Gibbous
Nov 6
Last Quarter
Nov 13
New
Nov 20
First Quarter
Nov 28
Full

Hourly Weather History & Observations

Time (EDT) Temp. Windchill Dew Point Humidity Pressure Visibility Wind Dir Wind Speed Gust Speed Precip Events Conditions
12:15 AM 44.6 °F 42.2 °F 28.4 °F 53% 29.94 in 10.0 mi West 4.6 mph - 0.00 in   Clear
12:35 AM 46.4 °F 44.3 °F 26.6 °F 46% 29.93 in 10.0 mi WSW 4.6 mph - 0.00 in   Clear
12:55 AM 46.4 °F 45.2 °F 26.6 °F 46% 29.94 in 10.0 mi WSW 3.5 mph - 0.00 in   Clear
1:15 AM 42.8 °F - 30.2 °F 61% 29.94 in 10.0 mi Calm Calm - 0.00 in   Clear
1:35 AM 41.0 °F 39.0 °F 30.2 °F 65% 29.93 in 10.0 mi SW 3.5 mph - 0.00 in   Clear
2:15 AM 37.4 °F 32.8 °F 30.2 °F 75% 29.94 in 10.0 mi WSW 5.8 mph - 0.00 in   Clear
2:35 AM 39.2 °F 37.0 °F 30.2 °F 70% 29.94 in 10.0 mi WSW 3.5 mph - 0.00 in   Clear
2:55 AM 37.4 °F - 30.2 °F 75% 29.94 in 10.0 mi Calm Calm - 0.00 in   Clear
3:15 AM 37.4 °F - 32.0 °F 81% 29.94 in 10.0 mi Calm Calm - 0.00 in   Clear
3:55 AM 37.4 °F - 30.2 °F 75% 29.93 in 10.0 mi Calm Calm - 0.00 in   Clear
4:15 AM 37.4 °F - 32.0 °F 81% 29.94 in 10.0 mi Calm Calm - 0.00 in   Clear
4:35 AM 35.6 °F - 32.0 °F 87% 29.94 in 10.0 mi Calm Calm - 0.00 in   Clear
4:55 AM 37.4 °F 34.9 °F 30.2 °F 75% 29.94 in 10.0 mi SW 3.5 mph - 0.00 in   Clear
5:15 AM 35.6 °F - 32.0 °F 87% 29.93 in 10.0 mi Calm Calm - 0.00 in   Clear
5:35 AM 35.6 °F - 32.0 °F 87% 29.94 in 10.0 mi Calm Calm - 0.00 in   Clear
5:55 AM 35.6 °F - 32.0 °F 87% 29.94 in 10.0 mi Calm Calm - 0.00 in   Clear
6:15 AM 35.6 °F 32.8 °F 32.0 °F 87% 29.94 in 10.0 mi SW 3.5 mph - 0.00 in   Clear
6:35 AM 35.6 °F - 30.2 °F 81% 29.95 in 10.0 mi Calm Calm - 0.00 in   Clear
7:15 AM 35.6 °F 32.8 °F 32.0 °F 87% 29.95 in 10.0 mi SSW 3.5 mph - 0.00 in   Partly Cloudy
7:55 AM 37.4 °F 34.9 °F 32.0 °F 81% 29.95 in 10.0 mi SSW 3.5 mph - 0.00 in   Scattered Clouds
8:15 AM 35.6 °F 32.8 °F 32.0 °F 87% 29.96 in 10.0 mi SSW 3.5 mph - 0.00 in   Partly Cloudy
8:35 AM 37.4 °F - 32.0 °F 81% 29.96 in 10.0 mi Calm Calm - 0.00 in   Partly Cloudy
8:55 AM 42.8 °F - 32.0 °F 66% 29.95 in 10.0 mi Calm Calm - 0.00 in   Clear
9:15 AM 44.6 °F 42.2 °F 32.0 °F 61% 29.96 in 10.0 mi SW 4.6 mph - 0.00 in   Clear
9:35 AM 46.4 °F 43.5 °F 32.0 °F 57% 29.96 in 10.0 mi WSW 5.8 mph - 0.00 in   Partly Cloudy
10:15 AM 50.0 °F - 32.0 °F 50% 29.96 in 10.0 mi SW 5.8 mph - 0.00 in   Clear
10:35 AM 51.8 °F - 32.0 °F 47% 29.96 in 10.0 mi SW 5.8 mph - 0.00 in   Clear
10:55 AM 55.4 °F - 32.0 °F 41% 29.95 in 10.0 mi SW 6.9 mph - 0.00 in   Clear
11:15 AM 57.2 °F - 33.8 °F 41% 29.95 in 10.0 mi SW 5.8 mph - 0.00 in   Clear
11:35 AM 60.8 °F - 33.8 °F 36% 29.94 in 10.0 mi SW 8.1 mph - 0.00 in   Clear
11:55 AM 62.6 °F - 33.8 °F 34% 29.93 in 10.0 mi SW 10.4 mph - 0.00 in   Clear
12:15 PM 64.4 °F - 33.8 °F 32% 29.92 in 10.0 mi West 8.1 mph - 0.00 in   Clear
12:35 PM 64.4 °F - 33.8 °F 32% 29.91 in 10.0 mi WSW 8.1 mph - 0.00 in   Clear
12:55 PM 66.2 °F - 35.6 °F 32% 29.89 in 10.0 mi SW 11.5 mph 16.1 mph 0.00 in   Clear
1:15 PM 68.0 °F - 35.6 °F 30% 29.88 in 10.0 mi WSW 10.4 mph 17.3 mph 0.00 in   Clear
1:35 PM 69.8 °F - 35.6 °F 28% 29.87 in 10.0 mi WSW 12.7 mph - 0.00 in   Clear
1:55 PM 69.8 °F - 37.4 °F 31% 29.86 in 10.0 mi WSW 11.5 mph 20.7 mph 0.00 in   Clear
2:15 PM 71.6 °F - 37.4 °F 29% 29.85 in 10.0 mi SW 12.7 mph - 0.00 in   Clear
2:35 PM 71.6 °F - 37.4 °F 29% 29.84 in 10.0 mi West 13.8 mph 20.7 mph 0.00 in   Clear
2:55 PM 71.6 °F - 37.4 °F 29% 29.84 in 10.0 mi WSW 12.7 mph 20.7 mph 0.00 in   Clear
3:15 PM 73.4 °F - 37.4 °F 27% 29.83 in 10.0 mi SW 16.1 mph - 0.00 in   Clear
3:35 PM 73.4 °F - 37.4 °F 27% 29.83 in 10.0 mi WSW 17.3 mph 21.9 mph 0.00 in   Clear
3:55 PM 73.4 °F - 37.4 °F 27% 29.83 in 10.0 mi WSW 13.8 mph 20.7 mph 0.00 in   Clear
4:15 PM 73.4 °F - 37.4 °F 27% 29.84 in 10.0 mi West 15.0 mph 20.7 mph 0.00 in   Clear
4:35 PM 73.4 °F - 37.4 °F 27% 29.84 in 10.0 mi WNW 13.8 mph - 0.00 in   Clear
4:55 PM 73.4 °F - 37.4 °F 27% 29.84 in 10.0 mi West 13.8 mph 20.7 mph 0.00 in   Clear
5:15 PM 73.4 °F - 37.4 °F 27% 29.84 in 10.0 mi West 11.5 mph - 0.00 in   Clear
5:35 PM 73.4 °F - 37.4 °F 27% 29.84 in 10.0 mi West 12.7 mph 18.4 mph 0.00 in   Clear
5:55 PM 71.6 °F - 39.2 °F 31% 29.84 in 10.0 mi West 6.9 mph - 0.00 in   Clear
6:15 PM 71.6 °F - 39.2 °F 31% 29.85 in 10.0 mi West 5.8 mph - 0.00 in   Clear
6:35 PM 69.8 °F - 39.2 °F 33% 29.86 in 10.0 mi Calm Calm - 0.00 in   Clear
6:55 PM 68.0 °F - 39.2 °F 35% 29.87 in 10.0 mi West 3.5 mph - 0.00 in   Clear
7:15 PM 62.6 °F - 42.8 °F 48% 29.88 in 10.0 mi Calm Calm - 0.00 in   Clear
7:35 PM 62.6 °F - 41.0 °F 45% 29.89 in 10.0 mi Calm Calm - 0.00 in   Clear
7:55 PM 59.0 °F - 42.8 °F 55% 29.90 in 10.0 mi Calm Calm - 0.00 in   Clear
8:15 PM 55.4 °F - 42.8 °F 63% 29.91 in 10.0 mi North 4.6 mph - 0.00 in   Clear
8:35 PM 60.8 °F - 41.0 °F 48% 29.92 in 10.0 mi Calm Calm - 0.00 in   Clear
9:15 PM 55.4 °F - 42.8 °F 63% 29.93 in 10.0 mi Calm Calm - 0.00 in   Clear
9:35 PM 55.4 °F - 42.8 °F 63% 29.94 in 10.0 mi NNE 3.5 mph - 0.00 in   Clear
9:55 PM 51.8 °F - 42.8 °F 71% 29.95 in 10.0 mi NNE 5.8 mph - 0.00 in   Clear
10:15 PM 53.6 °F - 41.0 °F 62% 29.96 in 10.0 mi NNE 6.9 mph - 0.00 in   Clear
10:35 PM 55.4 °F - 41.0 °F 58% 29.97 in 10.0 mi NNE 6.9 mph - 0.00 in   Clear
10:55 PM 55.4 °F - 39.2 °F 54% 29.97 in 10.0 mi NE 4.6 mph - 0.00 in   Clear
11:15 PM 53.6 °F - 39.2 °F 58% 29.98 in 10.0 mi NNE 3.5 mph - 0.00 in   Clear
11:35 PM 53.6 °F - 39.2 °F 58% 29.99 in 10.0 mi Calm Calm - 0.00 in   Clear
11:55 PM 53.6 °F - 39.2 °F 58% 29.99 in 10.0 mi East 3.5 mph - 0.00 in   Clear